Location: Byszew
(52.1813°N, 19.2693°E)
Time: 12:55:27
(UTC+00:00)

Cosmos 1821 Rocket - Pass Details

Date: 03 March 2021
Orbit: 945 x 1005 km, 82.9° (Epoch: 12 April)

Event Time Altitude Azimuth Distance (km) Brightness Sun altitude
Exits shadow 18:57:27 47° 86° (E) 1,261 4.2 -23.6°
Drops below altitude 10° 19:03:09 10° 19° (NNE) 2,704 6.3 -24.4°
Sets 19:05:43 0° 14° (NNE) 3,647 7.1 -24.8°
